Regional Weather Roundup
Issued by NWS

Home | Current Version | Previous Version | Graphics & Text | Print | Product List | Glossary On
Versions: 1 2 3 4 5 6 7 8 9 10 11 12 13 14 15 16 17 18 19 20 21 22 23 24 25 26 27 28 29 30 31 32 33 34 35 36 37 38 39 40 41 42 43 44 45 46 47 48 49 50
000
ASUS44 KMEG 240100
RWRTN
TENNESSEE HOURLY STATE WEATHER ROUNDUP
NATIONAL WEATHER SERVICE MEMPHIS TN
800 PM CDT THU MAR 23 2017

TNZ002-004-019-021-049-052-054-088>092-240200-
WEST TENNESSEE

CITY           SKY/WX    TMP DP  RH WIND       PRES   REMARKS
MEMPHIS INTL   CLEAR     75  52  44 SE7       30.10F
NWS MEMPHIS      N/A     74 N/A N/A MISG        N/A
JACKSON        CLEAR     71  50  47 SE3       30.14S
DYERSBURG      CLEAR     69  50  50 SE7       30.12S
PARIS          CLEAR     63  45  51 S6        30.16R
$$

TNZ008-025-027-028-033-062-065-066-240200-
NORTH MIDDLE TENNESSEE

CITY           SKY/WX    TMP DP  RH WIND       PRES   REMARKS
NASHVILLE      PTCLDY    64  43  46 S9        30.21F
CLARKSVILLE    CLEAR     57  43  59 SE9       30.17S
SMYRNA         CLEAR     63  45  51 S5        30.23S
CROSSVILLE     CLOUDY    55  38  52 S9        30.30S
$$

TNZ061-075-076-078-094-096-097-240200-
SOUTH MIDDLE TENNESSEE

CITY           SKY/WX    TMP DP  RH WIND       PRES   REMARKS
TULLAHOMA      CLEAR     63  37  39 SE9       30.27S
WINCHESTER     CLEAR     63  41  45 SE15      30.27S
MCMINNVILLE    CLEAR     61  41  48 VRB5      30.26F
COLUMBIA       CLEAR     66  45  45 SE5       30.19S
SHELBYVILLE    CLEAR     64  46  52 SE13      30.24F
$$

TNZ017-018-042-046-047-240200-
NORTHEAST TENNESSEE

CITY           SKY/WX    TMP DP  RH WIND       PRES   REMARKS
TRI CITIES     PTCLDY    56  26  31 S5        30.35R
$$

TNZ012-013-036-069-073-074-240200-
CENTRAL EAST TENNESSEE

CITY           SKY/WX    TMP DP  RH WIND       PRES   REMARKS
KNOXVILLE      CLOUDY    60  39  45 SW9       30.30R
OAK RIDGE      MOCLDY    63  35  35 VRB5      30.33R
GATLINBURG     MOCLDY    55  37  50 CALM      30.31R
$$

TNZ083-085-099-240200-
SOUTHEAST TENNESSEE

CITY           SKY/WX    TMP DP  RH WIND       PRES   REMARKS
CHATTANOOGA    PTCLDY    60  34  37 SE10      30.34S
$$

SKY/WX REPORTED AS FAIR MEANS FEW OR NO CLOUDS BELOW
12 THOUSAND FEET.





USA.gov is the U.S. government's official web portal to all federal, state and local government web resources and services.